Weather in Chastova

Russia / Novgorod Oblast     58°36′42″N   32°04′20″E
temp.,
°C
wind,
m/s
gust,
m/s
humid.,
%
clouds,
%
prec.,
mm/h
press.,
hPa
HPBL,
m
27 july, tue
tue2700:00+17se116413 0.0 102111
03:00+15sse116924 0.0 102111
06:00+16sse11741 0.0 102131
09:00+23s12521 0.0 1020405
12:00+28se23355 0.0 10192026
15:00+29sse232958 0.0 10172465
18:00+29sse2231100 0.0 10162204
21:00+21ese1155100 0.0 101511
28 july, wed
wed2800:00+19se2562100 0.0 101578
03:00+17sse2780100 0.0 1014138
06:00+17sse2882100 0.0 1013221
09:00+22s2462100 0.0 1012465
12:00+20wsw1388100 0.9 1011273
15:00+18n1198100 9.0 101079
18:00+19ese2398100 2.2 1009199
21:00+18se239929 2.2 1008105
29 july, thu
thu2900:00+16s269999 0.1 1007153
03:00+16ssw259936 0.1 1006135
06:00+17sw269865 0.0 1006174
09:00+20w3778100 0.0 1005484
12:00+24wsw4755100 0.0 10051214
15:00+26wsw584586 0.0 10042087
18:00+23sw41055100 0.1 1003684
21:00+21sw236969 0.1 100364
30 july, fri
fri3000:00+18wsw257586 0.0 100488
03:00+16wsw28853 0.0 1004176
06:00+16sw288950 0.0 1005251
09:00+21sw4859100 0.0 1005775
12:00+21sw4958100 0.0 10041153
15:00+16w3891100 0.6 1004379
18:00+18sw4108438 1.6 1003563
21:00+16ssw228928 1.8 100228
31 july, sat
sat3100:00+14s378856 0.0 1001117
03:00+14ssw4157472 0.0 1000641
06:00+16ssw514685 0.0 999886
09:00+20sw6135613 0.0 9981279
12:00+22sw7115468 0.0 9981625
15:00+20wsw6136979 0.9 9991664
18:00+19wsw61383100 2.3 10001194
21:00+16wsw5139170 3.4 1000751